Location: Praha
(50.0830°N, 14.4670°E)
Time: 02:33:02
(UTC+02:00)

ISS - Pass Details

Date: 16 May 2024
Orbit: 409 x 414 km, 51.6° (Epoch: 23 May)

Event Time Altitude Azimuth Distance (km) Brightness Sun altitude
Rises 00:18:31 0° 285° (WNW) 2,350 0.4 -20.2°
Reaches altitude 10° 00:20:37 10° 285° (WNW) 1,485 -0.7 -20.3°
Enters shadow 00:23:36 70° 289° (WNW) 443 -3.7 -20.3°
